Weather History for Park Rapids, MN

Change the Weather History Date:

Saturday, April 19, 2014

  Actual Average Record
Temperature  
Mean Temperature 52 °F -  
Max Temperature 66 °F 58 °F 83 °F (1987)
Min Temperature 39 °F 33 °F 17 °F (1988)
Degree Days  
Heating Degree Days 12    
Growing Degree Days 2 (Base 50)    
Moisture  
Dew Point 34 °F    
Average Humidity 55    
Maximum Humidity 89    
Minimum Humidity 25    
Precipitation  
Precipitation 0.09 in - - ()
Sea Level Pressure  
Sea Level Pressure 29.94 in    
Wind  
Wind Speed 20 mph (SSW)    
Max Wind Speed 28 mph    
Max Gust Speed 40 mph    
Visibility 10 miles    
Events Rain    
Averages and records for this station are not official NWS values.
T = Trace of Precipitation, MM = Missing Value Source: NWS Daily Summary

Daily Weather History Graph

Daily Weather History Graph

Search for Another Location

Airport:

Trip Planner

Search our weather history database for the weather conditions in past years. The results will help you decide how hot, cold, wet, or windy it might be!

Date:

Astronomy

Apr. 19, 2014 Rise Set
Actual Time 6:25 AM CDT 8:14 PM CDT
Civil Twilight 5:53 AM CDT 8:46 PM CDT
Nautical Twilight 5:13 AM CDT 9:26 PM CDT
Astronomical Twilight 4:30 AM CDT 10:10 PM CDT
Moon 12:07 AM CDT (4/19) 9:35 AM CDT (4/19)
Length of Visible Light 14h 53m
Length of Day
13h 49m
Waning Gibbous, 78% of the Moon is Illuminated
Apr 19
Waning Gibbous
Apr 22
Last Quarter
Apr 29
New
May 6
First Quarter
May 14
Full

Hourly Weather History & Observations

Time (CDT) Temp. Windchill Dew Point Humidity Pressure Visibility Wind Dir Wind Speed Gust Speed Precip Events Conditions
12:53 AM 42.1 °F 33.3 °F 21.9 °F 45% 30.08 in 10.0 mi SE 19.6 mph 29.9 mph N/A   Overcast
1:53 AM 42.1 °F 32.3 °F 23.0 °F 47% 30.05 in 10.0 mi SE 24.2 mph 31.1 mph N/A   Overcast
2:53 AM 43.0 °F 33.1 °F 25.0 °F 49% 29.99 in 10.0 mi SE 26.5 mph 40.3 mph 0.00 in   Scattered Clouds
3:53 AM 42.8 °F 32.7 °F 30.2 °F 61% 29.92 in 9.0 mi SSE 27.6 mph 38.0 mph N/A Rain Light Rain
4:53 AM 42.1 °F 32.1 °F 32.0 °F 67% 29.94 in 9.0 mi SE 25.3 mph 34.5 mph 0.02 in Rain Light Rain
5:53 AM 41.0 °F 31.1 °F 35.1 °F 79% 29.91 in 10.0 mi SSE 23.0 mph - 0.02 in   Overcast
6:53 AM 39.9 °F 29.2 °F 36.0 °F 86% 29.91 in 10.0 mi SSE 25.3 mph - 0.02 in Rain Light Rain
7:53 AM 39.9 °F 30.2 °F 37.0 °F 89% 29.91 in 10.0 mi SSE 20.7 mph 28.8 mph 0.03 in   Mostly Cloudy
8:53 AM 44.1 °F 36.8 °F 37.9 °F 79% 29.92 in 10.0 mi South 16.1 mph 27.6 mph 0.00 in   Overcast
9:53 AM 48.0 °F - 39.9 °F 74% 29.90 in 10.0 mi South 20.7 mph 28.8 mph N/A   Scattered Clouds
10:53 AM 50.0 °F - 39.9 °F 68% 29.91 in 10.0 mi South 23.0 mph 29.9 mph N/A   Mostly Cloudy
11:53 AM 55.0 °F - 43.0 °F 64% 29.91 in 10.0 mi South 17.3 mph - N/A   Mostly Cloudy
12:06 PM 57.0 °F - 44.1 °F 62% 29.88 in 10.0 mi SSW 18.4 mph 25.3 mph N/A   Mostly Cloudy
12:35 PM 57.9 °F - 44.1 °F 60% 29.89 in 10.0 mi SW 20.7 mph 27.6 mph N/A   Scattered Clouds
12:53 PM 60.1 °F - 44.1 °F 55% 29.91 in 10.0 mi SW 17.3 mph 24.2 mph N/A   Clear
1:53 PM 64.9 °F - 37.0 °F 36% 29.90 in 10.0 mi WSW 17.3 mph 24.2 mph N/A   Clear
2:53 PM 64.0 °F - 28.0 °F 26% 29.91 in 10.0 mi WSW 16.1 mph 29.9 mph N/A   Clear
3:53 PM 66.0 °F - 30.9 °F 27% 29.92 in 10.0 mi West 19.6 mph 28.8 mph N/A   Clear
4:53 PM 64.9 °F - 28.9 °F 26% 29.93 in 10.0 mi West 20.7 mph - N/A   Clear
5:53 PM 64.0 °F - 27.0 °F 25% 29.94 in 10.0 mi West 20.7 mph - N/A   Clear
6:53 PM 62.1 °F - 30.9 °F 31% 29.96 in 10.0 mi WSW 12.7 mph - N/A   Clear
7:53 PM 55.0 °F - 33.1 °F 43% 29.97 in 10.0 mi WSW 6.9 mph - N/A   Clear
8:53 PM 51.1 °F - 32.0 °F 48% 29.98 in 10.0 mi SSW 5.8 mph - N/A   Clear
9:53 PM 48.9 °F - 30.9 °F 50% 29.99 in 10.0 mi South 6.9 mph - N/A   Clear
10:53 PM 45.0 °F - 30.9 °F 58% 30.00 in 10.0 mi North - - N/A   Clear
11:53 PM 39.9 °F 35.1 °F 32.0 °F 73% 30.02 in 10.0 mi NNW 6.9 mph - N/A   Clear